Location: Tel Aviv
(32.0670°N, 34.7670°E)
Time: 05:48:19
(UTC+03:00)

Vanguard 2 - Pass Details

Date: 31 January 2022
Orbit: 552 x 2935 km, 32.9° (Epoch: 25 May)

Event Time Altitude Azimuth Distance (km) Brightness Sun altitude
Rises 20:46:16 0° 276° (W) 3,925 11.9 -45.1°
Reaches altitude 10° 20:48:31 10° 277° (W) 3,203 11.2 -45.6°
Enters shadow 20:53:11 44° 278° (W) 2,002 9.7 -46.6°
Maximum altitude 20:56:55 89° 7° (N) 1,760 - -47.4°
Drops below altitude 10° 21:11:16 10° 99° (E) 5,203 - -50.4°
Sets 21:15:59 0° 100° (E) 6,468 - -51.3°
